Flag for Brazil Weather past 2 weeks in São Luis, Maranhão, Brazil

Now
79 °F

Passing clouds.


Feels Like: 81 °F
Forecast: 79 / 88 °F
Wind: 8 mph from Northeast

Location: Sao Luiz Aeroporto

Current Time: Oct 23, 2014 at 3:21:45 AM

Latest Report: Oct 23, 2014 at 2:00 AM


Visibility: N/A

Pressure: 29.86 "Hg

Humidity: 74%

Dew point: 70 °F

Location of São LuisLocation

Historic Weather in São Luis — Graph

°F

São Luis temperature yesterday

Maximum temperature yesterday: 88 °F (at 3:00 PM)
Minimum temperature yesterday: 79 °F (at 4:00 AM)
Average temperature yesterday: 83 °F

Past Weeks' High & Low Weather Summary

 TemperatureHumidityPressure
High93 °F (Oct 8, 1:00 PM)79% (Oct 8, 2:00 AM)29.98 "Hg (Oct 8, 2:00 AM)
Low79 °F (Oct 8, 2:00 AM)36% (Oct 8, 1:00 PM)29.74 "Hg (Oct 9, 3:00 PM)
Average83 °F64%29.86 "Hg
* Reported Oct 8 2:00 AM — Oct 23 2:00 AM, São Luis, Weather by CustomWeather, © 2014

Note: Actual official high and low records may vary slightly from our data, if they occured in-between our weather recording intervals... More about our weather records

Advertising

São Luis weather history for previous 24 hours

 ConditionsComfort  
Time TempWeatherWind HumidityBarometerVisibility
2:00 AM
Oct 23
79 °FPassing clouds.8 mph74%29.86 "HgN/A
1:00 AM81 °FPassing clouds.12 mph70%29.89 "HgN/A
12:00 AM81 °FPassing clouds.10 mph70%29.92 "HgN/A
11:00 PM
Oct 22
81 °FPassing clouds.8 mph74%29.95 "HgN/A
10:00 PM81 °FPassing clouds.7 mph74%29.95 "HgN/A
9:00 PM81 °FPassing clouds.7 mph70%29.95 "HgN/A
8:00 PM81 °FPassing clouds.9 mph70%29.89 "HgN/A
7:00 PM81 °FPassing clouds.10 mph66%29.86 "HgN/A
6:00 PM82 °FScattered clouds.14 mph62%29.83 "HgN/A
5:00 PM84 °FPartly sunny.18 mph55%29.83 "HgN/A
4:00 PM84 °FPartly sunny.17 mph62%29.83 "HgN/A
3:00 PM88 °FPartly sunny.16 mph52%29.83 "HgN/A
2:00 PM86 °FPartly sunny.16 mph59%29.86 "HgN/A
1:00 PM86 °FScattered showers. Partly sunny.12 mph55%N/A5 mi
12:00 PM84 °FPartly sunny.13 mph62%29.92 "HgN/A
11:00 AM86 °FPartly sunny.16 mph55%29.92 "HgN/A
10:00 AM86 °FPartly sunny.15 mph52%29.95 "HgN/A
9:00 AM86 °FScattered clouds.17 mph55%29.92 "HgN/A
8:00 AM82 °FScattered clouds.16 mph62%29.92 "HgN/A
7:00 AM81 °FBroken clouds.10 mph70%29.89 "HgN/A
6:00 AM81 °FPassing clouds.10 mph70%29.89 "HgN/A
5:00 AM81 °FClear.9 mph70%29.86 "Hg10 mi
4:00 AM79 °FClear.13 mph74%29.86 "Hg10 mi
3:00 AM81 °FClear.14 mph70%29.86 "Hg10 mi
Weather by CustomWeather, © 2014

See weather overviewHow to use our weather pages